When you browse on this site, cookies collect data to enhance your experience and personalize the content and advertising you see.
Visit our Privacy Policy to learn more. By continuing to use the site, you agree to this use of cookies and data.
  • în România
  • Lista ţărilor
  • Pe 7 zile
  • Temperatura apei
  • Hartă satelitară
  • Meteo pe hartă
  • Widget-uri
  • user-avatar
    Intrare

    Meteo pe oră la Trowbridge

    Astăzi, 20 Ianuarie, Duminică

    Timp Temperatura Precipitaţii Vânt Presiune Umiditate
    00:00 +3°C° 0 mm 2 m/s 754 mmHg 96%
    01:00 +3°C° 0 mm 2 m/s 754 mmHg 96%
    02:00 +3°C° 0 mm 2 m/s 754 mmHg 95%
    03:00 +4°C° 0 mm 1 m/s 755 mmHg 95%
    04:00 +2°C° 0 mm 2 m/s 755 mmHg 95%
    05:00 +2°C° 0 mm 2 m/s 756 mmHg 95%
    06:00 +1°C° 0 mm 2 m/s 756 mmHg 95%
    07:00 +1°C° 0 mm 2 m/s 757 mmHg 94%
    08:00 +1°C° 0 mm 2 m/s 757 mmHg 93%
    09:00 +2°C° 0 mm 1 m/s 758 mmHg 93%
    10:00 +2°C° 0 mm 2 m/s 759 mmHg 88%
    11:00 +3°C° 0 mm 2 m/s 759 mmHg 83%
    12:00 +4°C° 0 mm 2 m/s 760 mmHg 79%
    13:00 +5°C° 0 mm 2 m/s 760 mmHg 80%
    14:00 +5°C° 0 mm 2 m/s 761 mmHg 82%
    15:00 +5°C° 0 mm 2 m/s 761 mmHg 83%
    16:00 +4°C° 0 mm 2 m/s 761 mmHg 86%
    17:00 +3°C° 0 mm 2 m/s 762 mmHg 90%
    18:00 +2°C° 0 mm 2 m/s 762 mmHg 93%
    19:00 +2°C° 0 mm 2 m/s 763 mmHg 93%
    20:00 +2°C° 0 mm 2 m/s 763 mmHg 94%
    21:00 +2°C° 0 mm 2 m/s 764 mmHg 94%
    22:00 +3°C° 0 mm 1 m/s 764 mmHg 94%
    23:00 +2°C° 0 mm 1 m/s 764 mmHg 94%

    Mâine, 21 Ianuarie, Luni

    Timp Temperatura Precipitaţii Vânt Presiune Umiditate
    00:00 +2°C° 0 mm 1 m/s 765 mmHg 95%
    01:00 +2°C° 0 mm 1 m/s 765 mmHg 95%
    02:00 +2°C° 0 mm 1 m/s 765 mmHg 95%
    03:00 +1°C° 0 mm 1 m/s 764 mmHg 95%
    04:00 +1°C° 0 mm 1 m/s 764 mmHg 95%
    05:00 0°C° 0 mm 0 m/s 764 mmHg 95%
    06:00 0°C° 0 mm 0 m/s 764 mmHg 95%
    07:00 0°C° 0 mm 0 m/s 764 mmHg 95%
    08:00 +1°C° 0 mm 0 m/s 764 mmHg 95%
    09:00 +2°C° 0 mm 1 m/s 764 mmHg 94%
    10:00 +3°C° 0 mm 1 m/s 764 mmHg 91%
    11:00 +4°C° 0 mm 2 m/s 763 mmHg 87%
    12:00 +4°C° 0 mm 3 m/s 763 mmHg 83%
    13:00 +4°C° 0 mm 3 m/s 762 mmHg 84%
    14:00 +5°C° 0 mm 4 m/s 762 mmHg 84%
    15:00 +5°C° 0 mm 4 m/s 761 mmHg 85%
    16:00 +5°C° 0 mm 4 m/s 760 mmHg 87%
    17:00 +4°C° 0 mm 4 m/s 759 mmHg 89%
    18:00 +4°C° 0 mm 4 m/s 758 mmHg 91%
    19:00 +3°C° 0.1 mm 5 m/s 757 mmHg 90%
    20:00 +3°C° 0.1 mm 5 m/s 755 mmHg 89%
    21:00 +3°C° 0.1 mm 5 m/s 754 mmHg 89%
    22:00 +4°C° 0.9 mm 6 m/s 753 mmHg 89%
    23:00 +4°C° 0.9 mm 7 m/s 752 mmHg 90%

    Poimâine, 22 Ianuarie, Marţi

    Timp Temperatura Precipitaţii Vânt Presiune Umiditate
    00:00 +3°C° 0.9 mm 9 m/s 750 mmHg 90%
    01:00 +3°C° 0.6 mm 7 m/s 750 mmHg 87%
    02:00 +2°C° 0.6 mm 5 m/s 749 mmHg 84%
    03:00 0°C° 0.6 mm 4 m/s 749 mmHg 80%
    04:00 0°C° 0 mm 4 m/s 749 mmHg 81%
    05:00 -1°C° 0 mm 4 m/s 748 mmHg 82%
    06:00 -1°C° 0 mm 4 m/s 748 mmHg 83%
    07:00 -1°C° 0 mm 4 m/s 748 mmHg 83%
    08:00 0°C° 0 mm 3 m/s 748 mmHg 83%
    09:00 0°C° 0 mm 3 m/s 747 mmHg 83%
    10:00 0°C° 0.2 mm 4 m/s 747 mmHg 79%
    11:00 +1°C° 0.2 mm 5 m/s 747 mmHg 76%
    12:00 +1°C° 0.2 mm 6 m/s 747 mmHg 72%
    13:00 +1°C° 0.2 mm 6 m/s 747 mmHg 73%
    14:00 +1°C° 0.2 mm 6 m/s 747 mmHg 73%
    15:00 +1°C° 0.2 mm 5 m/s 746 mmHg 74%
    16:00 0°C° 0 mm 5 m/s 747 mmHg 77%
    17:00 -1°C° 0 mm 4 m/s 747 mmHg 79%
    18:00 -2°C° 0 mm 4 m/s 747 mmHg 81%
    19:00 -2°C° 0 mm 4 m/s 748 mmHg 81%
    20:00 -3°C° 0 mm 4 m/s 748 mmHg 82%
    21:00 -3°C° 0 mm 4 m/s 748 mmHg 82%
    22:00 -3°C° 0 mm 4 m/s 748 mmHg 82%
    23:00 -2°C° 0 mm 3 m/s 749 mmHg 83%

    23 Ianuarie, Miercuri

    Timp Temperatura Precipitaţii Vânt Presiune Umiditate
    00:00 -2°C° 0 mm 3 m/s 749 mmHg 83%
    01:00 -2°C° 0 mm 3 m/s 749 mmHg 84%
    02:00 -2°C° 0 mm 3 m/s 749 mmHg 84%
    03:00 -2°C° 0 mm 3 m/s 749 mmHg 85%
    04:00 -2°C° 0 mm 3 m/s 749 mmHg 85%
    05:00 -2°C° 0 mm 3 m/s 750 mmHg 86%
    06:00 -2°C° 0 mm 3 m/s 750 mmHg 87%
    07:00 -2°C° 0 mm 3 m/s 750 mmHg 86%
    08:00 -1°C° 0 mm 2 m/s 751 mmHg 86%
    09:00 -1°C° 0 mm 2 m/s 751 mmHg 85%
    10:00 0°C° 0 mm 3 m/s 751 mmHg 81%
    11:00 +2°C° 0 mm 3 m/s 751 mmHg 78%
    12:00 +3°C° 0 mm 4 m/s 752 mmHg 74%
    13:00 +3°C° 0 mm 4 m/s 752 mmHg 75%
    14:00 +3°C° 0 mm 3 m/s 752 mmHg 76%
    15:00 +3°C° 0 mm 3 m/s 752 mmHg 77%
    16:00 +4°C° 0 mm 2 m/s 752 mmHg 81%
    17:00 +3°C° 0 mm 2 m/s 753 mmHg 84%
    18:00 +2°C° 0 mm 2 m/s 753 mmHg 88%
    19:00 +1°C° 0 mm 2 m/s 753 mmHg 89%
    20:00 +1°C° 0 mm 2 m/s 754 mmHg 90%
    21:00 -1°C° 0 mm 2 m/s 754 mmHg 91%
    22:00 -1°C° 0 mm 2 m/s 754 mmHg 91%
    23:00 -1°C° 0 mm 2 m/s 755 mmHg 91%

    24 Ianuarie, Joi

    Timp Temperatura Precipitaţii Vânt Presiune Umiditate
    00:00 -1°C° 0 mm 2 m/s 755 mmHg 91%
    01:00 -1°C° 0 mm 2 m/s 755 mmHg 91%
    02:00 -1°C° 0 mm 2 m/s 755 mmHg 91%
    03:00 -1°C° 0 mm 2 m/s 756 mmHg 91%
    04:00 -1°C° 0 mm 2 m/s 756 mmHg 91%
    05:00 -1°C° 0 mm 2 m/s 756 mmHg 91%
    06:00 -1°C° 0 mm 2 m/s 756 mmHg 91%
    07:00 -1°C° 0 mm 2 m/s 757 mmHg 91%
    08:00 +1°C° 0 mm 2 m/s 757 mmHg 91%
    09:00 +1°C° 0 mm 2 m/s 758 mmHg 90%
    10:00 +2°C° 0 mm 2 m/s 758 mmHg 87%
    11:00 +4°C° 0 mm 2 m/s 758 mmHg 83%
    12:00 +5°C° 0 mm 2 m/s 758 mmHg 79%
    13:00 +5°C° 0 mm 2 m/s 758 mmHg 81%
    14:00 +6°C° 0 mm 2 m/s 758 mmHg 82%
    15:00 +7°C° 0 mm 1 m/s 758 mmHg 83%
    16:00 +5°C° 0 mm 1 m/s 759 mmHg 85%
    17:00 +4°C° 0 mm 1 m/s 759 mmHg 87%
    18:00 +2°C° 0 mm 0 m/s 760 mmHg 89%
    19:00 +1°C° 0 mm 0 m/s 760 mmHg 89%
    20:00 +1°C° 0 mm 0 m/s 761 mmHg 89%
    21:00 +1°C° 0 mm 0 m/s 761 mmHg 89%
    22:00 +2°C° 0 mm 1 m/s 761 mmHg 90%
    23:00 +2°C° 0 mm 1 m/s 761 mmHg 91%

    25 Ianuarie, Vineri

    Timp Temperatura Precipitaţii Vânt Presiune Umiditate
    00:00 +2°C° 0 mm 1 m/s 762 mmHg 91%
    01:00 +2°C° 0 mm 1 m/s 762 mmHg 91%
    02:00 +2°C° 0 mm 1 m/s 762 mmHg 90%
    03:00 +2°C° 0 mm 1 m/s 762 mmHg 90%
    04:00 +2°C° 0 mm 2 m/s 762 mmHg 90%
    05:00 +2°C° 0 mm 2 m/s 762 mmHg 90%
    06:00 +3°C° 0 mm 2 m/s 762 mmHg 89%
    07:00 +3°C° 0 mm 2 m/s 763 mmHg 90%
    08:00 +4°C° 0 mm 2 m/s 763 mmHg 92%
    09:00 +4°C° 0 mm 2 m/s 763 mmHg 93%
    10:00 +5°C° 0 mm 2 m/s 763 mmHg 92%
    11:00 +6°C° 0 mm 2 m/s 763 mmHg 92%
    12:00 +7°C° 0 mm 2 m/s 763 mmHg 92%
    13:00 +8°C° 0 mm 2 m/s 763 mmHg 93%
    14:00 +8°C° 0 mm 2 m/s 763 mmHg 94%
    15:00 +8°C° 0 mm 2 m/s 763 mmHg 96%
    16:00 +7°C° 0 mm 2 m/s 763 mmHg 96%
    17:00 +7°C° 0 mm 2 m/s 763 mmHg 97%
    18:00 +6°C° 0 mm 2 m/s 763 mmHg 97%
    19:00 +6°C° 0 mm 2 m/s 763 mmHg 97%
    20:00 +6°C° 0 mm 2 m/s 763 mmHg 96%
    21:00 +5°C° 0 mm 2 m/s 763 mmHg 96%
    22:00 +5°C° 0 mm 2 m/s 762 mmHg 95%
    23:00 +5°C° 0 mm 2 m/s 762 mmHg 94%
    Arată mai mult